Regional Weather Roundup
Issued by NWS

Home | Current Version | Previous Version | Graphics & Text | Print | Product List | Glossary Off
Versions: 1 2 3 4 5 6 7 8 9 10 11 12 13 14 15 16 17 18 19 20 21 22 23 24 25 26 27 28 29 30 31 32 33 34 35 36 37 38 39 40 41 42 43 44 45 46 47 48 49 50

000
ASUS43 KBIS 181410
RWRND

NORTH DAKOTA REGIONAL WEATHER ROUNDUP
NATIONAL WEATHER SERVICE BISMARCK ND
900 AM CDT SAT APR 18 2015

NOTE: "FAIR" INDICATES FEW OR NO CLOUDS BELOW 12,000 FEET WITH NO
SIGNIFICANT WEATHER AND/OR OBSTRUCTIONS TO VISIBILITY.


NDZ001>003-009>011-017-181500-
NORTHWEST NORTH DAKOTA

CITY           SKY/WX    TMP DP  RH WIND       PRES   REMARKS
WILLISTON      SUNNY     49  29  46 S8        29.97F
MINOT          SUNNY     42  29  59 E6        30.02F
MINOT AFB      SUNNY     41  31  68 SE8       30.02F
$$

NDZ018>021-031>035-040>046-181500-
SOUTHWEST NORTH DAKOTA

CITY           SKY/WX    TMP DP  RH WIND       PRES   REMARKS
BISMARCK       MOSUNNY   45  31  58 E7        30.04F
DICKINSON      SUNNY     45  31  58 S5        29.98F
GARRISON         N/A     46  29  51 SE9       30.03F
HETTINGER ARPT PTSUNNY   44  36  73 CALM      30.02S
$$

NDZ004>008-012>016-024-026-027-054-181500-
NORTHEAST NORTH DAKOTA

CITY           SKY/WX    TMP DP  RH WIND       PRES   REMARKS
GRAND FORKS    MOSUNNY   44  31  60 SE12      30.12F
GRND FRKS AFB  SUNNY     42  30  62 SE10      30.12F
DEVILS LAKE    SUNNY     43  30  61 SE12      30.08F
$$

NDZ022-023-025-028>030-036>039-047>053-181500-
SOUTHEAST NORTH DAKOTA

CITY           SKY/WX    TMP DP  RH WIND       PRES   REMARKS
FARGO          SUNNY     49  29  46 E6        30.08F
JAMESTOWN      MOSUNNY   50  29  44 E13       30.05F
$$




USA.gov is the U.S. government's official web portal to all federal, state and local government web resources and services.